This demonstration page uses our WeatherBlox Daily Observations layout. Learn more.

Left ArrowRight Arrow

Hourly Observations for January 27, 2023

Temp ( °F °C ) Dew Point ( °F °C ) Humidity (%) Winds ( mph kmh ) Pressure ( in mb ) Visibility ( mi km ) Precip ( " mm )
12:56 am 00:56 Partly Cloudy 36 2.2 29 -1.7 75 75 W 18 30 29.86 1011 10 16 0.00 0.00
1:56 am 01:56 Clear 37 2.8 29 -1.7 72 72 W 20 31 29.86 1011 10 16 0.00 0.00
2:56 am 02:56 Mostly Cloudy 38 3.3 29 -1.7 70 70 W 23 37 29.87 1011 10 16 0.00 0.00
3:56 am 03:56 Cloudy 36 2.2 28 -2.2 73 73 WNW 21 33 29.86 1011 10 16 0.00 0.00
4:56 am 04:56 Cloudy 36 2.2 29 -1.7 75 75 WNW 17 28 29.86 1011 10 16 0.00 0.00
5:56 am 05:56 Partly Cloudy 35 1.7 29 -1.7 78 78 WNW 17 28 29.88 1012 10 16 0.00 0.00
6:56 am 06:56 Clear 34 1.1 29 -1.7 82 82 WNW 16 26 29.90 1013 10 16 0.00 0.00
7:56 am 07:56 Sunny 36 2.2 28 -2.2 73 73 WNW 15 24 29.92 1013 10 16 0.00 0.00
8:56 am 08:56 Sunny 37 2.8 28 -2.2 70 70 NNW 14 22 29.95 1014 10 16 0.00 0.00
9:56 am 09:56 Sunny 37 2.8 27 -2.8 67 67 NW 10 17 29.96 1015 10 16 0.00 0.00
10:56 am 10:56 Sunny 38 3.3 28 -2.2 67 67 NW 12 19 29.98 1015 10 16 0.00 0.00
11:56 am 11:56 Sunny 38 3.3 27 -2.8 64 64 NNW 14 22 29.98 1015 10 16 0.00 0.00
12:56 pm 12:56 Sunny 38 3.3 27 -2.8 64 64 NW 7 11 29.96 1015 10 16 0.00 0.00
1:56 pm 13:56 Sunny 38 3.3 27 -2.8 64 64 WNW 6 9 29.94 1014 10 16 0.00 0.00
2:56 pm 14:56 Sunny 39 3.9 26 -3.3 59 59 NNW 3 6 29.93 1014 10 16 0.00 0.00
3:56 pm 15:56 Sunny 37 2.8 28 -2.2 70 70 SSW 12 19 29.95 1014 10 16 0.00 0.00
4:56 pm 16:56 Sunny 35 1.7 29 -1.7 78 78 S 6 9 29.93 1014 10 16 0.00 0.00
5:56 pm 17:56 Mostly Cloudy 34 1.1 29 -1.7 82 82 SSE 6 9 29.93 1013 10 16 0.00 0.00
6:56 pm 18:56 Cloudy 34 1.1 29 -1.7 82 82 S 7 11 29.95 1014 10 16 0.00 0.00
7:56 pm 19:56 Cloudy 34 1.1 29 -1.7 82 82 SSE 7 11 29.94 1014 10 16 0.00 0.00
8:56 pm 20:56 Cloudy 33 0.6 30 -1.1 88 88 SSE 8 13 29.93 1014 10 16 0.00 0.00
9:56 pm 21:56 Cloudy 34 1.1 29 -1.7 82 82 SE 8 13 29.91 1013 10 16 0.00 0.00
10:56 pm 22:56 Cloudy 34 1.1 29 -1.7 82 82 ESE 17 28 29.87 1012 10 16 0.00 0.00
11:56 pm 23:56 Cloudy 34 1.1 29 -1.7 82 82 ESE 12 19 29.86 1011 10 16 0.00 0.00

Powered by AerisWeather